Tristan Ouvrie

Tristan Ouvrie

Statistiques 2022

  • Courses courues : 127
  • Nb de victoires : 7
  • Nb de places : 30
  • Écart gagnant : 12
  • Réussite à la gagne : 6%
  • Réussite à la place : 24%
Musique : 7a 3a Da 2a 0a 8a 0a 4a 8a 0a 2a 0a 1a 4a 7a 0a 2a 0a
DateRangCatégorieAlloc.Dist.HippodromeChevalRed. KmSpé.
03/11/22 7 Trot 90 000€ 2 850m Vincennes Zarenne Fas 1'13"6 Attelé lire

Longtemps au sein du peloton, n'a pu que terminer convenablement.

03/11/22 3 Trot 39 000€ 2 700m Vincennes Jolvik de Guez 1'15"2 Attelé
01/11/22 D Trot 70 000€ 2 850m Laval Huwaga Attelé lire

Après avoir figuré, s'est désunie à la sortie du tournant final alors qu'elle progressait.

28/10/22 2 Trot 16 000€ 2 775m Les Sables D'Olonne Iron du Gers 1'15"9 Attelé
25/10/22 0 Trot 44 000€ 2 850m Vincennes Jadrius de Guez Attelé
22/10/22 8 Trot 39 000€ 2 150m Enghien Soisy Johnny du Pont 1'15"4 Attelé
22/10/22 0 Trot 33 000€ 2 875m Enghien Soisy Ina du Pont Attelé
20/10/22 4 Trot 42 000€ 2 875m Enghien Soisy Kabaka de Guez 1'18"6 Attelé
18/10/22 8 Trot 59 000€ 2 700m Vincennes Have Seven 1'15"4 Attelé lire

N'a été qu'un simple figurant au sein du peloton.

18/10/22 0 Trot 57 000€ 2 100m Vincennes Gamin Jaba Attelé lire

N'a joué aucun rôle utile.

17/10/22 2 Trot 39 000€ 2 875m Enghien Soisy Jolvik de Guez 1'16"7 Attelé
14/10/22 0 Trot 100 000€ 2 100m Vincennes Huwaga Attelé lire

N'a joué aucun rôle utile.

02/10/22 1 Trot 12 000€ 2 200m Angouleme Kabaka de Guez 1'20"7 Attelé
01/10/22 4 Trot 20 000€ 2 850m Laval Joumba de Guez 1'16"9 Attelé
30/09/22 7 Trot 23 000€ 2 275m Nantes Jablonski 1'16"9 Attelé
28/09/22 0 Trot 90 000€ 3 500m Vire Gently de Muze Attelé lire

N'a pu que figurer au sein du peloton.

27/09/22 2 Trot 18 000€ 2 850m Vincennes Forsica du Rocher 1'14"5 Attelé
27/09/22 0 Trot 90 000€ 2 850m Vincennes Belker Attelé lire

N'a joué aucun rôle utile.

25/09/22 D Trot 15 000€ 2 725m Lisieux Good Expression Attelé
25/09/22 2 Trot 15 000€ 2 725m Lisieux Gust Elji 1'18"1 Attelé
25/09/22 9 Trot 28 000€ 2 775m Lisieux Huwaga 1'15"3 Attelé
25/09/22 1 Trot 15 000€ 2 725m Lisieux Jolvik de Guez 1'17"1 Attelé
16/09/22 D Trot 18 000€ 2 725m Pornichet La Baule Guerrier Jihaime Attelé
11/09/22 2 Trot 25 000€ 2 700m La Capelle Gordon Mijack 1'15"0 Attelé
11/09/22 0 Trot 15 000€ 2 750m La Capelle Helgeres Attelé
06/09/22 1 Trot 18 000€ 2 100m Vincennes Forsica du Rocher 1'12"5 Attelé
28/08/22 D Trot 15 000€ 2 850m Laval Jolvik de Guez Attelé
17/08/22 0 Trot 150 000€ 2 875m Enghien Soisy Gently de Muze Attelé lire

N'a joué aucun rôle utile.

14/08/22 1 Trot 10 000€ 2 625m Le Sap Gang Of New York TNC Attelé
13/08/22 1 Mixte 13 000€ 2 825m Sable Sur Sarthe Janice de Guez 1'23"1 Attelé
10/08/22 8 Trot 37 000€ 2 000m Les Sables D'Olonne Heading Reference 1'11"7 Attelé
09/08/22 5 Trot 18 000€ 2 875m Mauquenchy Histoire du Lys 1'15"7 Attelé
07/08/22 Dist Trot 18 000€ 2 875m Enghien Soisy Dilf de Chamant Attelé
31/07/22 0 Trot 45 000€ 2 900m Carentan Fairplay d'Urzy Attelé
17/07/22 1 Trot 18 000€ 2 475m Royan La Palmyre Invictus One 1'16"2 Attelé
16/07/22 D Mixte 13 000€ 2 850m Sable Sur Sarthe Izarof de Guez Attelé
10/07/22 7 Trot 100 000€ 1 609m La Capelle Dorgos de Guez 1'12"1 Attelé
10/07/22 7 Trot 23 000€ 1 800m La Capelle Hoffenbach 1'14"0 Attelé
09/07/22 6 Trot 120 000€ 2 950m Vichy Tjacko Zaz 1'14"3 Attelé
03/07/22 7 Trot 19 000€ 3 175m Saint Brieuc Inka du Vivier 1'17"0 Attelé
19/06/22 D Trot 20 000€ 2 700m La Capelle Ingenue Attelé
19/06/22 3 Trot 26 000€ 1 800m La Capelle Enduro 1'12"6 Attelé
18/06/22 3 Mixte 12 000€ 2 975m Jallais Jipe de Larre Attelé
15/06/22 5 Trot 12 000€ 2 150m Vichy Copain du Cedre 1'13"8 Attelé
13/06/22 0 Trot 26 000€ 2 200m Caen Enduro Attelé lire

Très vite à la pointe du combat, n'a pu véritablement s'exprimer dans la phase finale.

12/06/22 D Trot 15 000€ 2 750m Elbeuf Himeros du Dollar Attelé
06/06/22 6 Trot 12 000€ 2 700m Thouars Jipe de Larre Attelé
03/06/22 7 Trot 51 000€ 2 700m Vincennes Itono de Millac 1'14"2 Attelé
02/06/22 9 Trot 19 000€ 2 700m Graignes Java Pura Vida 1'19"4 Attelé
29/05/22 D Trot 23 000€ 2 575m Reims Enduro Attelé